Theta_e
352 350 337 335 335 335 336 339 339 335 336 335 334 336 336 335 333 333 334 335 335 334 333 333 333 332 331 330 328 326 322 319 319 319 321 323 321 320 319 319 319 319 320
351 349 339 335 336 333 334 335 333 330 331 333 336 335 334 332 332 334 333 333 334 334 334 333 331 331 331 330 329 328 327 323 320 319 321 322 323 321 319 319 318 319 320
348 347 339 337 338 338 337 335 334 331 333 335 334 333 330 331 333 333 331 332 332 333 333 332 331 330 330 329 329 329 328 326 324 321 321 322 321 321 319 319 319 319 320
347 345 340 337 338 341 341 339 337 336 334 335 334 331 331 333 335 333 332 332 333 333 330 330 329 328 328 328 327 328 329 328 326 324 322 321 321 321 319 319 318 320 319
347 345 341 337 338 341 341 338 336 336 334 334 333 333 333 334 335 333 331 334 332 330 328 326 326 326 327 326 326 326 326 327 326 323 323 322 321 319 319 319 319 320 319
347 346 341 337 338 342 340 335 335 336 335 334 334 335 334 335 335 332 332 333 331 330 328 326 325 325 326 325 326 326 326 327 326 323 323 321 321 318 319 319 319 319 319
347 345 341 340 339 341 338 336 335 334 335 334 335 337 335 335 335 332 332 331 330 329 327 325 324 322 323 324 324 325 325 325 324 324 322 321 319 318 318 319 319 318 318
345 342 340 340 340 339 336 337 335 335 335 336 335 336 336 336 333 329 331 331 330 329 326 324 321 323 323 322 325 323 322 321 320 319 319 319 317 317 317 318 318 318 319
344 340 343 341 341 339 338 338 337 337 337 337 336 336 336 335 332 328 330 330 329 327 324 322 323 321 321 323 322 321 320 320 319 318 318 319 319 319 318 318 318 318 319
342 341 340 340 339 339 338 337 337 337 337 337 337 336 335 333 329 330 330 328 327 324 323 323 321 320 321 321 319 318 316 316 316 317 317 318 318 318 318 318 318 318 318
340 339 339 339 339 339 338 336 335 337 337 337 335 335 333 328 326 329 328 327 325 324 324 321 320 320 320 317 316 314 314 314 314 314 313 314 316 318 317 317 317 317 317
339 338 337 337 336 336 335 329 327 330 335 335 334 332 330 326 327 327 325 324 324 323 321 318 319 319 316 314 313 312 312 312 312 312 311 312 313 314 316 316 317 317 319
336 334 331 328 328 328 329 328 323 325 332 332 329 328 325 326 326 324 323 321 320 318 317 317 316 316 313 312 311 311 310 310 309 309 309 311 311 312 316 316 317 317 320
331 328 327 330 330 330 330 326 323 329 329 328 328 328 327 325 322 321 319 318 316 316 315 316 315 313 312 311 310 309 308 307 306 306 307 309 310 311 313 314 316 316 319
332 331 330 326 328 328 327 328 331 330 328 326 325 325 324 320 319 318 318 317 315 314 316 317 314 312 310 308 307 305 305 305 304 304 305 306 307 309 310 313 315 315 317
329 328 327 326 327 327 327 325 326 325 322 322 321 321 320 317 316 315 314 314 313 313 313 313 311 308 306 304 303 303 303 302 302 302 303 303 303 305 308 310 313 313 315
326 326 325 326 327 328 327 323 317 317 317 317 317 317 314 313 312 313 314 314 313 312 311 308 306 304 302 301 300 300 300 301 300 300 300 301 301 303 306 308 309 311 312
326 326 328 329 328 327 325 322 320 317 314 313 314 313 313 312 311 312 311 312 311 309 308 305 302 299 298 298 298 298 299 299 298 298 298 299 299 300 302 305 307 309 310
331 331 329 329 329 327 323 322 320 317 316 314 313 313 313 312 311 310 310 309 308 305 302 300 300 299 298 297 296 295 298 297 297 297 298 298 299 299 300 302 304 308 309
328 328 328 327 326 324 321 320 319 318 316 315 315 315 313 311 310 309 308 307 305 304 303 302 301 300 299 296 294 291 297 297 297 297 297 298 299 299 299 300 302 304 307
324 324 326 327 326 325 324 324 322 319 318 317 316 314 313 311 310 308 307 306 306 305 304 303 301 300 296 293 291 293 295 296 296 296 296 297 298 298 299 301 301 302 304
326 326 324 326 326 324 323 322 321 320 318 315 313 311 309 309 308 307 307 305 305 305 302 300 298 296 294 291 294 295 295 295 296 295 296 296 297 298 299 299 299 300 301
325 323 324 324 323 321 320 319 318 317 315 314 313 310 308 307 306 306 306 305 304 303 299 297 295 294 292 289 293 294 295 295 295 295 295 295 296 297 298 298 298 298 299
323 323 323 322 321 320 319 318 318 317 316 315 313 311 308 307 306 304 305 304 302 299 297 296 294 291 289 288 291 293 294 295 294 293 294 294 296 297 297 297 297 297 298
321 320 319 318 319 319 318 317 315 313 313 314 313 312 310 308 306 304 304 303 300 298 297 295 294 293 289 289 288 290 293 294 294 293 293 293 295 296 296 296 296 296 297
310 314 314 314 314 314 314 314 314 312 312 314 314 313 312 309 307 305 303 301 299 297 296 295 295 294 292 292 292 289 289 293 294 293 293 293 294 295 295 295 295 295 295
Wind_Speed
45 43 37 31 25 23 22 20 19 18 17 16 13 13 12 12 11 12 13 13 13 13 13 15 17 18 18 18 17 16 17 15 8 13 20 27 31 33 34 35 36 37 37
45 45 40 33 29 25 23 21 20 20 18 16 14 14 13 12 12 13 14 13 13 14 15 15 18 19 21 23 23 22 22 22 20 17 21 27 30 34 35 36 36 35 37
43 46 42 37 33 30 28 24 23 21 19 17 15 13 12 12 13 14 14 15 15 15 17 18 19 19 21 24 26 28 27 26 26 23 21 21 26 33 33 35 35 34 35
42 43 46 44 41 35 31 30 27 23 20 19 16 14 13 16 17 16 17 18 18 17 15 18 19 20 21 23 25 28 29 29 29 27 22 22 23 30 31 29 29 27 33
40 39 47 47 40 37 34 32 29 26 23 21 17 18 18 20 20 18 17 17 17 15 16 17 19 21 20 20 23 27 27 27 27 22 19 22 23 21 20 25 29 31 34
39 42 30 33 33 37 31 31 30 28 27 24 22 22 22 22 20 17 16 16 18 18 19 19 20 21 18 17 21 24 25 25 25 21 20 18 25 25 26 23 26 29 15
35 30 35 44 45 39 35 33 33 31 30 28 25 24 23 21 18 17 19 17 20 20 18 17 19 17 16 19 21 20 19 19 20 23 24 26 23 30 28 28 30 31 36
30 26 32 37 46 40 35 34 33 31 29 30 24 24 23 19 13 18 24 18 18 19 17 15 14 16 16 18 16 14 14 18 20 21 25 27 28 32 32 32 35 38 41
29 30 38 41 41 34 34 34 35 31 26 26 24 22 20 17 19 21 21 17 16 17 15 12 13 12 13 11 12 14 17 21 23 25 24 29 32 34 35 33 31 34 22
25 24 29 32 25 26 26 23 20 26 23 28 24 21 18 19 13 15 15 15 15 14 12 12 10 10 11 12 13 13 16 21 24 29 28 28 27 28 35 31 37 31 28
19 21 22 17 14 11 6 3 8 20 24 21 19 20 18 17 15 13 13 13 12 12 14 14 11 9 9 9 11 11 14 19 22 24 24 26 26 28 32 34 42 39 36
24 22 18 16 13 12 10 5 14 17 25 23 18 16 15 13 13 10 10 11 10 8 12 12 8 6 6 6 8 11 15 16 18 21 20 22 23 29 35 41 49 48 39
28 24 18 14 13 9 7 2 4 16 21 18 16 16 12 11 9 9 10 7 6 8 12 12 10 7 6 7 10 13 16 16 18 21 20 21 25 29 33 38 51 44 37
27 21 15 8 10 10 14 16 21 20 24 19 14 12 9 10 9 9 8 5 5 8 11 12 5 8 5 9 12 13 13 14 16 20 23 25 26 28 31 34 38 41 27
24 16 15 12 13 15 17 13 15 17 17 12 10 10 10 10 10 7 5 6 7 6 7 2 9 4 8 10 11 10 12 14 18 22 24 26 26 26 26 31 32 37 25
15 17 17 22 19 13 13 9 8 9 9 8 7 7 11 8 4 4 7 8 7 5 5 5 3 5 7 8 10 12 14 17 19 21 21 23 26 25 25 29 31 29 27
21 18 16 20 22 19 15 15 15 11 11 10 9 7 5 5 2 4 7 6 7 8 6 3 3 3 5 5 8 10 15 17 17 19 21 22 25 27 24 25 23 25 27
19 16 14 21 24 23 21 18 16 17 16 13 10 8 6 5 2 1 3 3 6 6 4 3 2 1 2 5 8 11 13 15 17 19 20 21 23 25 24 22 22 19 22
17 16 14 16 17 19 19 22 20 18 15 14 11 8 4 3 2 1 2 6 6 4 3 4 3 1 3 6 9 10 10 12 14 17 19 21 23 24 25 23 23 23 23
11 12 14 16 16 18 21 19 16 16 16 16 13 9 9 6 8 5 4 4 4 4 4 2 2 2 4 7 10 8 6 9 12 16 19 20 21 23 23 23 23 21 21
10 8 6 10 18 20 17 15 16 18 19 17 15 14 11 10 9 8 7 6 6 5 5 3 3 3 4 7 7 3 4 8 11 15 18 20 20 22 23 23 22 21 22
6 7 10 14 15 15 17 18 18 18 18 19 17 15 13 12 10 9 8 6 6 7 5 2 2 2 3 4 4 4 6 8 11 13 17 18 20 21 22 23 24 23 21
7 10 11 14 17 17 17 18 19 19 20 20 19 17 15 13 10 8 10 7 8 9 7 2 3 2 0 2 4 5 7 8 10 11 14 16 17 17 20 22 22 23 21
9 9 12 13 13 13 13 14 15 16 16 17 19 18 17 15 12 8 11 9 12 10 7 3 1 1 2 2 2 3 5 7 9 10 10 12 13 14 17 19 22 22 21
7 8 7 8 10 12 12 12 12 11 11 15 18 19 18 17 16 13 13 13 14 12 9 6 2 1 2 2 2 1 1 4 6 8 8 9 10 12 15 17 19 23 23
6 6 6 9 10 11 12 13 14 12 13 14 16 18 19 22 20 18 17 18 17 15 13 9 5 4 4 2 3 3 0 1 1 5 5 8 9 11 13 16 17 20 22
Wind_Direction
208 207 203 203 203 208 208 205 209 211 206 213 220 231 240 249 258 265 274 278 275 271 268 264 258 259 260 257 252 253 257 247 238 280 295 313 317 322 322 328 329 327 323
206 207 203 202 201 204 209 212 211 211 212 221 226 235 243 252 259 269 276 275 270 268 273 267 267 266 264 258 255 255 258 259 254 270 290 302 307 312 316 318 323 322 318
204 206 201 200 204 209 212 212 213 214 217 220 228 235 244 256 264 270 274 273 271 275 278 277 278 272 271 268 265 258 259 264 265 264 279 292 294 307 313 314 313 314 310
202 201 200 202 209 212 215 216 219 220 222 222 231 235 244 255 262 265 267 270 277 278 275 276 279 275 278 281 281 276 268 267 269 268 274 285 283 298 307 297 299 297 300
199 196 201 205 207 216 214 215 222 224 226 235 231 237 244 254 258 265 272 276 272 267 269 273 276 281 290 291 286 281 279 275 269 264 266 277 278 285 286 295 292 294 298
198 202 184 198 213 222 214 218 220 227 231 231 235 241 246 253 261 270 274 273 271 263 270 276 283 292 289 283 284 284 285 282 274 259 266 263 275 285 292 288 294 297 298
204 186 187 189 206 215 220 222 220 224 232 234 236 244 255 264 273 281 278 276 273 264 266 280 288 295 292 293 290 288 285 282 279 278 272 270 276 294 295 294 292 286 290
201 182 179 185 209 212 212 220 228 230 230 237 240 248 257 265 272 285 281 274 270 262 268 273 279 295 298 295 291 291 293 295 296 291 284 280 289 300 296 287 288 286 287
195 180 189 197 204 211 216 225 230 233 237 240 242 253 266 264 275 276 273 263 252 255 264 273 286 293 299 289 284 296 302 304 309 305 297 288 292 298 308 304 296 299 288
192 188 189 199 206 216 223 234 239 239 243 246 242 252 262 275 273 268 259 248 247 255 271 286 288 292 286 281 289 298 306 320 324 323 317 309 304 306 317 305 303 296 290
174 176 180 191 201 201 196 57 337 286 254 250 260 267 267 267 280 274 257 251 254 265 285 296 300 292 276 280 294 309 320 323 322 319 316 309 312 323 319 317 316 303 291
165 163 160 164 166 169 154 106 49 360 263 249 246 248 253 260 271 254 244 249 258 273 288 290 303 293 259 280 308 325 329 325 325 324 316 311 311 317 321 329 327 315 302
152 148 142 130 117 107 138 252 300 210 243 224 226 245 247 251 233 228 230 237 262 289 285 291 299 241 235 289 319 332 332 332 334 333 321 315 319 325 337 333 337 333 340
134 127 128 151 184 216 236 226 198 233 223 216 224 237 232 206 204 213 230 250 285 278 292 301 252 202 277 316 325 336 346 349 344 341 334 329 330 334 337 340 334 336 336
136 156 181 211 290 238 200 191 214 213 229 225 212 199 186 201 216 225 257 279 277 291 318 241 176 259 312 335 347 354 0 353 352 349 345 340 336 337 333 347 340 339 343
160 168 186 199 214 216 182 155 183 206 208 198 174 184 189 191 194 276 274 268 271 272 207 189 228 305 318 339 349 353 359 353 354 352 351 350 342 341 334 342 347 340 341
176 204 202 224 233 220 191 177 154 159 159 152 158 157 135 118 97 308 328 290 239 208 209 217 271 311 332 355 359 357 350 353 355 356 357 357 354 352 344 340 334 349 343
203 210 218 223 221 219 210 196 181 175 166 155 153 154 137 120 123 340 34 87 148 200 216 233 214 93 28 11 3 352 349 353 357 2 5 5 2 356 347 341 343 343 348
190 186 193 195 198 200 190 182 191 191 174 165 169 170 175 164 199 255 277 253 240 235 186 150 151 72 7 360 355 346 343 354 0 6 10 8 7 3 358 356 353 352 1
167 172 187 186 183 181 185 186 186 183 183 178 179 187 201 209 212 229 236 217 188 175 169 175 230 295 328 339 342 343 346 359 11 15 17 15 13 11 5 3 7 360 2
169 164 159 169 176 186 190 193 191 191 188 186 191 193 199 215 216 218 214 210 204 204 211 240 286 281 323 340 352 21 24 15 20 20 20 20 18 16 17 19 17 13 14
194 203 198 197 197 190 188 188 192 191 192 195 196 192 194 199 194 206 217 212 197 217 203 229 276 275 329 9 53 70 41 26 24 22 19 19 22 23 26 28 28 24 19
188 183 181 187 186 183 185 188 189 197 199 199 200 192 190 199 200 205 216 217 205 194 194 219 302 285 277 106 89 66 45 36 27 20 16 17 22 29 32 35 35 34 33
208 195 180 178 184 191 194 192 194 202 207 208 206 204 203 201 200 206 212 214 192 194 195 212 260 345 137 135 123 84 47 34 28 22 19 16 23 32 40 40 40 41 43
172 175 179 188 193 194 194 197 203 217 224 223 218 217 215 208 206 208 212 209 195 205 203 199 190 162 135 109 92 117 72 33 28 20 25 23 32 41 48 49 50 52 53
104 187 212 218 219 217 220 216 218 220 212 209 219 227 224 211 210 211 210 205 204 206 206 199 192 175 159 92 32 14 307 9 54 27 38 45 53 53 58 58 60 65 66